Regional Weather Roundup
Issued by NWS

Home | Current Version | Previous Version | Text Only | Print | Product List | Glossary On
Versions: 1 2 3 4 5 6 7 8 9 10 11 12 13 14 15 16 17 18 19 20 21 22 23 24 25 26 27 28 29 30 31 32 33 34 35 36 37 38 39 40 41 42 43 44 45 46 47 48 49 50
000
ASUS43 KDTX 181801
RWRMI
MICHIGAN HOURLY REGIONAL WEATHER ROUNDUP
NATIONAL WEATHER SERVICE DETROIT/PONTIAC MI
200 PM EDT SAT APR 18 2015

NOTE: "FAIR" INDICATES FEW OR NO CLOUDS BELOW 12,000 FEET WITH NO
SIGNIFICANT WEATHER AND/OR OBSTRUCTION TO VISIBILITY.

MIZ047>049-052>055-059>063-066>070-074>076-081>083-181900-
SOUTHEAST LOWER MICHIGAN

CITY           SKY/WX    TMP DP  RH WIND       PRES   REMARKS
ADRIAN         MOSUNNY   76  47  35 E8        30.05S
6HR MIN TEMP:  52; 6HR MAX TEMP:  76;

ALMA           SUNNY     65  34  31 E15G22    30.13R
ANN ARBOR      SUNNY     76  36  23 E9        30.06S
BAD AXE        SUNNY     53  33  48 NE16G24   30.17S
6HR MIN TEMP:  49; 6HR MAX TEMP:  55;

CARO           MOSUNNY   59  34  39 N10G17    30.15S
DETROIT CITY   SUNNY     64  35  34 E18G26    30.09S
6HR MIN TEMP:  54; 6HR MAX TEMP:  71;

DETROIT        MOSUNNY   72  41  32 E13G22    30.08R
6HR MIN TEMP:  54; 6HR MAX TEMP:  76;

FLINT          SUNNY     69  34  27 NE14      30.11S
6HR MIN TEMP:  51; 6HR MAX TEMP:  69;

GROSSE ILE     SUNNY     66  37  34 NE17G24   30.07R
HILLSDALE      SUNNY     75  45  33 NE9       30.06R
6HR MIN TEMP:  58; 6HR MAX TEMP:  75;

HOWELL         SUNNY     69  32  25 NE9G17    30.09S
6HR MIN TEMP:  55; 6HR MAX TEMP:  70;


CITY           SKY/WX    TMP DP  RH WIND       PRES   REMARKS
JACKSON        SUNNY     73  35  25 NE12      30.07S
6HR MIN TEMP:  50; 6HR MAX TEMP:  74;

LAMBERTVILLE   SUNNY     73  43  33 E9G21     30.07R
LANSING        SUNNY     68  35  29 NE13      30.11S
6HR MIN TEMP:  53; 6HR MAX TEMP:  70;

LAPEER         FAIR      62  29  29 NE14G20   30.13R
MASON          SUNNY     68  35  29 NE15      30.10R
MONROE         SUNNY     73  43  33 E15G22    30.05R
PONTIAC        MOSUNNY   68  35  29 N14       30.09S
6HR MIN TEMP:  54; 6HR MAX TEMP:  70;

PORT HOPE        N/A     46  36  68 N8        30.18R
6HR MIN TEMP:  45; 6HR MAX TEMP:  54;

PORT HURON     SUNNY     55  36  47 NE10G17   30.15R
TRI CITIES     SUNNY     60  32  34 E20       30.17R
6HR MIN TEMP:  53; 6HR MAX TEMP:  63;

TROY           SUNNY     68  32  26 NE15G21   30.11F
SAGINAW HB     SUNNY     61  28  29 NE20G28   30.15S
$$
MIZ043>046-050>051-056>058-064>065-071>073-077>080-181900-
SOUTHWEST LOWER MICHIGAN

CITY           SKY/WX    TMP DP  RH WIND       PRES   REMARKS
BATTLE CREEK   SUNNY     74  37  26 NE8G21    30.07S
6HR MIN TEMP:  54; 6HR MAX TEMP:  74;

BENTON HARBOR  PTSUNNY   66  42  41 N6        30.05R
6HR MIN TEMP:  55; 6HR MAX TEMP:  76;

BIG RAPIDS     SUNNY     66  15  14 E12       30.10F
6HR MIN TEMP:  46; 6HR MAX TEMP:  66;

COLDWATER      SUNNY     73  46  37 E8        30.05R
6HR MIN TEMP:  51; 6HR MAX TEMP:  73;

FREMONT        FAIR      69  20  15 E7        30.08S
HOLLAND        SUNNY     76  37  24 NE13G18   30.07F
6HR MIN TEMP:  52; 6HR MAX TEMP:  76;

GRAND RAPIDS   MOSUNNY   72  32  23 NE15      30.08S
6HR MIN TEMP:  49; 6HR MAX TEMP:  73;

IONIA          FAIR      70  34  26 E15       30.09S
KALAMAZOO      SUNNY     76  39  26 NE10      30.06F
6HR MIN TEMP:  49; 6HR MAX TEMP:  76;

LUDINGTON      MOSUNNY   68  22  17 E10       30.11S
6HR MIN TEMP:  48; 6HR MAX TEMP:  68;

MARSHALL       SUNNY     73  37  26 E10       30.06S
MOUNT PLEASANT SUNNY     69  27  21 E10G16    30.11S
6HR MIN TEMP:  53; 6HR MAX TEMP:  69;

MUSKEGON       MOSUNNY   74  29  19 E7        30.07F
6HR MIN TEMP:  51; 6HR MAX TEMP:  75;

SOUTH HAVEN    MOSUNNY   76  34  21 NE10      30.05S
$$
MIZ016>042-181900-
NORTHERN LOWER MICHIGAN

CITY           SKY/WX    TMP DP  RH WIND       PRES   REMARKS
ALPENA         SUNNY     56  29  35 N14       30.19S
6HR MIN TEMP:  48; 6HR MAX TEMP:  57;

BEAVER ISLAND  SUNNY     53  27  35 NE12      30.21R
6HR MIN TEMP:  41; 6HR MAX TEMP:  54;

BELLAIRE       SUNNY     64  15  15 NE9       30.16F
6HR MIN TEMP:  44; 6HR MAX TEMP:  64;

CADILLAC       SUNNY     65  20  17 E16       30.12F
CHARLEVOIX     SUNNY     48  34  58 N10       30.22R
6HR MIN TEMP:  40; 6HR MAX TEMP:  49;

FRANKFORT      SUNNY     55  32  41 N8        30.16F
GAYLORD        SUNNY     58  18  21 NE13      30.16S
6HR MIN TEMP:  44; 6HR MAX TEMP:  59;

GRAYLING       SUNNY     62  17  17 CALM      30.15F
6HR MIN TEMP:  44; 6HR MAX TEMP:  62;

HARBOR SPRINGS SUNNY     58  30  33 E7G17     30.18S
HOUGHTON LAKE  SUNNY     64  20  18 NE13      30.14F
6HR MIN TEMP:  48; 6HR MAX TEMP:  64;

MANISTEE       SUNNY     64  23  20 NE14      30.12F
OSCODA         SUNNY     55  32  41 NE14G23   30.19R
PELLSTON       SUNNY     58  27  30 NE13G24   30.19S
6HR MIN TEMP:  43; 6HR MAX TEMP:  58;

ROGERS CITY    SUNNY     51  35  55 NW5       30.20F
TRAVERSE CITY  MOSUNNY   55  34  45 NE10      30.16F
6HR MIN TEMP:  44; 6HR MAX TEMP:  55;

$$
MIZ007>008-015-181900-
EASTERN UPPER MICHIGAN

CITY           SKY/WX    TMP DP  RH WIND       PRES   REMARKS
KINROSS        SUNNY     54  28  37 NE8       30.18F
6HR MIN TEMP:  37; 6HR MAX TEMP:  54;

MACKINAC ISLAN SUNNY     54  31  42 CALM      30.19S
6HR MIN TEMP:  42; 6HR MAX TEMP:  55;

NEWBERRY       SUNNY     52  33  47 N10       30.20S
S. S. MARIE    SUNNY     54  34  46 W9        30.18S
6HR MIN TEMP:  42; 6HR MAX TEMP:  56;

$$
MIZ004>006-011>014-085-181900-
CENTRAL UPPER MICHIGAN

CITY           SKY/WX    TMP DP  RH WIND       PRES   REMARKS
MANISTIQUE     SUNNY     57  28  32 NE9       30.20S
6HR MIN TEMP:  39; 6HR MAX TEMP:  57;

ESCANABA       SUNNY     55  30  38 SE9       30.21F
6HR MIN TEMP:  39; 6HR MAX TEMP:  55;

MENOMINEE      SUNNY     50  34  53 E15       30.21F
6HR MIN TEMP:  43; 6HR MAX TEMP:  50;

SAWYER-GWINN   SUNNY     46  32  57 N8        30.24S
$$
MIZ001>003-009>011-084-181900-
WESTERN UPPER MICHIGAN

CITY           SKY/WX    TMP DP  RH WIND       PRES   REMARKS
IRON MOUNTAIN  SUNNY     56  26  31 NE7       30.20F
6HR MIN TEMP:  39; 6HR MAX TEMP:  56;

HOUGHTON       SUNNY     45  32  60 E10       30.26S
6HR MIN TEMP:  37; 6HR MAX TEMP:  46;

COPPER HARBOR    N/A     40  31  70 NE6       30.29R
6HR MIN TEMP:  36; 6HR MAX TEMP:  42;

IRONWOOD       SUNNY     55  28  35 E13       30.15F
6HR MIN TEMP:  37; 6HR MAX TEMP:  55;

$$

ABBREVIATIONS USED IN REMARKS
   TC - TEMPERATURE IN CELSIUS
  WCI - WIND CHILL INDEX
   HX - HEAT INDEX
  VSB - VISIBILITY



USA.gov is the U.S. government's official web portal to all federal, state and local government web resources and services.